CW5020 Weather Reports


Display with metric or nautical units.
time (UTC)temp
F
wind
direction
speed
MPH
gust
MPH
rain 1hr
in
rain 24hr
in
rain mn
in
humidity
%
barometer
mb
20260902053006 80 238 0.0 1.0 0.00 0.00 0.00 78 1014.3
20260902052503 80 238 0.0 0.0 0.00 0.00 0.00 77 1014.3
20260902052005 80 238 0.0 0.0 0.00 0.00 0.00 77 1014.3
20260902051008 80 238 0.0 0.0 0.00 0.00 0.00 77 1014.3
20260902050504 80 238 0.0 0.0 0.00 0.00 0.00 77 1014.4
20260902050008 81 238 0.0 0.0 0.00 0.00 0.00 77 1014.3
20260902045504 81 238 0.0 0.0 0.00 0.00 0.00 77 1014.3
20260902044005 81 237 0.0 0.0 0.00 0.00 0.00 76 1014.3
20260902043504 81 237 0.0 0.0 0.00 0.00 0.00 76 1014.3
20260902043005 81 237 0.0 1.0 0.00 0.00 0.00 76 1014.3
20260902042504 81 237 0.0 1.0 0.00 0.00 0.00 76 1014.3
20260902042006 81 237 0.0 1.0 0.00 0.00 0.00 76 1014.3
20260902041503 81 267 0.0 0.0 0.00 0.00 0.00 76 1014.3
20260902040504 82 267 0.0 0.0 0.00 0.00 0.00 75 1014.3
20260902040007 82 267 0.0 0.0 0.00 0.00 0.00 74 1014.3
20260902035504 82 267 0.0 0.0 0.00 0.00 0.00 74 1014.3
20260902035006 82 267 0.0 1.0 0.00 0.00 0.00 74 1014.4
20260902034504 82 267 0.0 1.0 0.00 0.00 0.00 74 1014.5
20260902034005 82 267 0.0 2.0 0.00 0.00 0.00 73 1014.5
20260902033504 83 267 0.0 2.0 0.00 0.00 0.00 73 1014.5
20260902033005 83 247 0.0 1.0 0.00 0.00 0.00 73 1014.5
20260902032504 83 249 0.0 0.0 0.00 0.00 0.00 73 1014.5
20260902032009 83 249 0.0 0.0 0.00 0.00 0.00 73 1014.5
20260902031507 83 249 0.0 1.0 0.00 0.00 0.00 72 1014.5
20260902031007 83 249 0.0 4.0 0.00 0.00 0.00 72 1014.5
20260902030504 83 264 0.0 4.0 0.00 0.00 0.00 72 1014.4
20260902030009 83 308 0.0 1.0 0.00 0.00 0.00 72 1014.4
20260902025504 83 200 0.0 1.0 0.00 0.00 0.00 72 1014.4
20260902024006 84 251 0.0 3.0 0.00 0.00 0.00 72 1014.4
20260902023504 84 250 0.0 0.0 0.00 0.00 0.00 72 1014.4
20260902023006 84 250 0.0 0.0 0.00 0.00 0.00 71 1014.4
20260902022504 84 250 0.0 2.0 0.00 0.00 0.00 71 1014.4
20260902021004 84 252 0.0 0.0 0.00 0.00 0.00 70 1014.3
20260902020503 85 252 0.0 1.0 0.00 0.00 0.00 69 1014.2
20260902015504 85 252 0.0 3.0 0.00 0.00 0.00 69 1014.2
20260902015004 85 269 0.0 2.0 0.00 0.00 0.00 69 1014.2
20260902014004 85 269 0.0 0.0 0.00 0.00 0.00 69 1014.2
20260902013503 85 269 0.0 0.0 0.00 0.00 0.00 69 1013.9
20260902012503 86 269 0.0 1.0 0.00 0.00 0.00 69 1013.9
20260902012004 86 269 0.0 3.0 0.00 0.00 0.00 69 1013.8
20260902011503 86 267 0.0 3.0 0.00 0.00 0.00 68 1013.7
20260902011004 86 271 0.0 2.0 0.00 0.00 0.00 68 1013.7
20260902010503 86 271 0.0 1.0 0.00 0.00 0.00 68 1013.6
20260902010007 86 271 0.0 2.0 0.00 0.00 0.00 68 1013.6
20260902005503 87 271 0.0 2.0 0.00 0.00 0.00 68 1013.5
20260902005004 87 289 0.0 1.0 0.00 0.00 0.00 68 1013.4
20260902004005 87 289 0.0 1.0 0.00 0.00 0.00 67 1013.3
20260902003503 87 288 0.0 2.0 0.00 0.00 0.00 68 1013.3
20260902003005 88 288 0.0 1.0 0.00 0.00 0.00 67 1013.4
20260902002503 88 290 0.0 1.0 0.00 0.00 0.00 67 1013.3
20260902002004 88 238 0.0 1.0 0.00 0.00 0.00 67 1013.4
20260902001503 88 238 0.0 1.0 0.00 0.00 0.00 66 1013.4
20260902001004 88 238 0.0 1.0 0.00 0.00 0.00 66 1013.5
20260902000503 88 238 0.0 1.0 0.00 0.00 0.00 67 1013.5
20260901235504 89 256 0.0 2.0 0.00 0.01 0.00 67 1013.6
20260901235006 89 256 0.0 0.0 0.00 0.01 0.00 67 1013.7
20260901234504 89 255 0.0 2.0 0.00 0.01 0.00 66 1013.7
20260901234006 89 255 0.0 2.0 0.00 0.01 0.00 66 1013.6
20260901233005 90 257 0.0 3.0 0.00 0.01 0.00 66 1013.7
20260901232504 90 251 0.0 2.0 0.00 0.01 0.00 66 1013.8
20260901232005 90 254 0.0 2.0 0.00 0.01 0.00 66 1013.7
20260901231504 90 253 0.0 2.0 0.00 0.01 0.00 66 1013.8
20260901231004 90 263 0.0 2.0 0.00 0.01 0.00 66 1013.7
20260901230504 90 263 0.0 2.0 0.00 0.01 0.00 67 1013.8
20260901230007 90 234 0.0 1.0 0.00 0.01 0.00 66 1013.8
20260901224504 91 234 0.0 1.0 0.00 0.01 0.00 66 1013.8
20260901224005 91 252 0.0 1.0 0.00 0.01 0.00 66 1013.9
20260901223503 91 252 0.0 1.0 0.00 0.01 0.00 66 1013.9
20260901223005 91 252 0.0 3.0 0.00 0.01 0.00 65 1013.9
20260901222503 91 252 0.0 3.0 0.00 0.01 0.00 64 1013.9
20260901221503 91 217 0.0 4.0 0.00 0.01 0.00 64 1013.9
20260901220504 92 244 0.0 2.0 0.00 0.01 0.00 63 1013.9
20260901220005 92 251 0.0 4.0 0.00 0.01 0.00 62 1013.9
20260901215503 92 244 0.0 1.0 0.00 0.01 0.00 63 1013.9
20260901215004 93 244 0.0 1.0 0.00 0.01 0.00 63 1013.8
20260901214503 93 244 0.0 1.0 0.00 0.01 0.00 63 1013.8
20260901213503 93 263 0.0 3.0 0.00 0.01 0.00 62 1013.7
20260901213005 93 250 0.0 3.0 0.00 0.01 0.00 61 1013.7
20260901212503 93 281 0.0 5.0 0.00 0.01 0.00 62 1013.8
20260901212004 93 281 0.0 5.0 0.00 0.01 0.00 61 1013.8
20260901211503 93 244 0.0 3.0 0.00 0.01 0.00 61 1013.8
20260901211004 94 222 1.0 6.0 0.00 0.01 0.00 59 1013.8
20260901210503 94 244 0.0 6.0 0.00 0.01 0.00 60 1013.8
20260901210008 94 208 0.0 2.0 0.00 0.01 0.00 61 1013.7
20260901205505 93 204 0.0 3.0 0.00 0.01 0.00 61 1013.7
20260901205006 94 242 0.0 3.0 0.00 0.01 0.00 60 1013.7
20260901204504 94 238 0.0 3.0 0.00 0.01 0.00 59 1013.8
20260901204005 94 234 0.0 3.0 0.00 0.01 0.00 58 1013.9
20260901203006 94 236 0.0 3.0 0.00 0.01 0.00 58 1013.9
20260901202504 94 234 0.0 3.0 0.00 0.01 0.00 57 1013.9
20260901201504 95 223 1.0 7.0 0.00 0.01 0.00 58 1014.0
20260901200506 95 213 0.0 4.0 0.00 0.01 0.00 56 1014.0
20260901200013 95 250 0.0 3.0 0.00 0.01 0.00 61 1014.0
20260901195506 94 266 1.0 6.0 0.00 0.01 0.00 59 1014.1
20260901194504 94 254 1.0 3.0 0.00 0.01 0.00 58 1014.2
20260901194004 94 247 0.0 3.0 0.00 0.01 0.00 61 1014.2
20260901193505 93 298 1.0 4.0 0.00 0.01 0.00 61 1014.2
20260901192503 93 281 1.0 5.0 0.00 0.01 0.00 65 1014.2
20260901192007 93 259 0.0 3.0 0.00 0.01 0.00 65 1014.3
20260901191004 92 261 1.0 4.0 0.00 0.01 0.00 63 1014.3
20260901190503 92 242 1.0 4.0 0.00 0.01 0.00 64 1014.3
20260901190008 92 247 0.0 3.0 0.00 0.01 0.00 61 1014.4
20260901185007 92 283 1.0 7.0 0.00 0.01 0.00 63 1014.4
20260901184504 92 281 0.0 4.0 0.00 0.01 0.00 65 1014.5
20260901184004 92 270 1.0 7.0 0.00 0.01 0.00 63 1014.5
20260901183503 92 190 1.0 7.0 0.00 0.01 0.00 61 1014.6
20260901182503 92 285 1.0 5.0 0.00 0.01 0.00 61 1014.6
20260901181506 91 265 0.0 4.0 0.00 0.01 0.00 62 1014.6
20260901181004 91 258 1.0 4.0 0.00 0.01 0.00 63 1014.5
20260901180503 91 261 1.0 4.0 0.00 0.01 0.00 63 1014.6
20260901180007 91 265 1.0 4.0 0.00 0.01 0.00 62 1014.7
20260901175503 91 261 1.0 5.0 0.00 0.01 0.00 64 1014.7
20260901175008 91 252 1.0 5.0 0.00 0.01 0.00 64 1014.6
20260901174505 90 277 1.0 3.0 0.00 0.01 0.00 65 1014.7
20260901174006 90 249 2.0 7.0 0.00 0.01 0.00 66 1014.7
20260901173505 90 268 2.0 7.0 0.00 0.01 0.00 68 1014.6
20260901173004 90 288 1.0 5.0 0.00 0.01 0.00 69 1014.8
20260901172503 90 275 1.0 7.0 0.00 0.01 0.00 66 1014.7
20260901172004 90 229 1.0 7.0 0.00 0.01 0.00 69 1014.8
20260901171504 90 281 1.0 6.0 0.00 0.01 0.00 69 1014.8
20260901171007 89 288 0.0 6.0 0.00 0.01 0.00 70 1014.8
20260901170506 89 235 0.0 3.0 0.00 0.01 0.00 68 1014.9
20260901170007 89 253 0.0 3.0 0.00 0.01 0.00 69 1014.8
20260901165503 89 228 0.0 3.0 0.00 0.01 0.00 70 1014.9
20260901165007 89 277 0.0 3.0 0.00 0.01 0.00 70 1014.9
20260901164504 88 275 0.0 3.0 0.00 0.01 0.00 69 1015.0
20260901163506 88 269 0.0 3.0 0.00 0.01 0.00 72 1015.1
20260901163009 87 288 0.0 3.0 0.00 0.01 0.00 72 1015.0
20260901162505 87 292 0.0 3.0 0.00 0.01 0.00 73 1015.0
20260901162006 87 257 1.0 6.0 0.00 0.01 0.00 72 1015.1
20260901161007 86 252 1.0 4.0 0.00 0.01 0.00 73 1015.1
20260901160505 86 279 0.0 3.0 0.00 0.01 0.00 73 1015.0
20260901160004 85 271 0.0 3.0 0.00 0.01 0.00 74 1015.0
20260901155505 85 271 0.0 3.0 0.00 0.01 0.00 73 1015.0
20260901154504 85 273 1.0 4.0 0.00 0.01 0.00 74 1015.0
20260901154008 85 273 0.0 4.0 0.00 0.01 0.00 76 1015.0
20260901153004 84 234 0.0 4.0 0.00 0.01 0.00 75 1014.9
20260901152503 84 254 0.0 4.0 0.00 0.01 0.00 75 1015.0
20260901152007 84 254 0.0 4.0 0.00 0.01 0.00 75 1015.1
20260901151007 83 271 0.0 1.0 0.00 0.01 0.00 76 1014.9
20260901150009 83 269 0.0 3.0 0.00 0.01 0.00 77 1014.9
20260901144506 82 260 0.0 1.0 0.00 0.01 0.00 78 1015.1
20260901144206 82 259 0.0 2.0 0.00 0.01 0.00 77 1015.1
20260901143505 81 264 0.0 2.0 0.00 0.01 0.00 77 1015.0
20260901143007 81 257 0.0 1.0 0.00 0.01 0.00 79 1014.9
20260901142505 81 257 0.0 1.0 0.00 0.01 0.00 79 1015.0
20260901142006 80 257 0.0 1.0 0.00 0.01 0.00 80 1015.0
20260901141505 80 257 0.0 1.0 0.00 0.01 0.00 81 1014.9
20260901141006 79 257 0.0 0.0 0.00 0.01 0.00 82 1014.9
20260901140503 79 257 0.0 0.0 0.00 0.01 0.00 82 1014.9
20260901135503 78 257 0.0 1.0 0.00 0.09 0.00 84 1015.0
20260901135006 78 259 0.0 0.0 0.00 0.09 0.00 84 1014.9
20260901134502 77 259 0.0 1.0 0.00 0.09 0.00 83 1014.9
20260901134004 77 259 0.0 1.0 0.00 0.09 0.00 83 1014.9
20260901133007 78 257 0.0 0.0 0.00 0.09 0.00 84 1014.9
20260901132504 77 257 0.0 0.0 0.00 0.09 0.00 84 1015.0
20260901132004 77 257 0.0 1.0 0.00 0.09 0.00 83 1015.0
20260901131503 77 257 0.0 2.0 0.00 0.09 0.00 84 1015.1
20260901131006 77 257 0.0 3.0 0.00 0.09 0.00 84 1015.0
20260901130503 77 258 0.0 3.0 0.00 0.09 0.00 85 1015.1
20260901130004 77 242 0.0 0.0 0.00 0.23 0.00 85 1015.2
20260901125004 77 242 0.0 0.0 0.00 0.23 0.00 84 1015.2
20260901124505 77 242 0.0 0.0 0.00 0.23 0.00 85 1015.2
20260901124004 77 242 0.0 1.0 0.00 0.23 0.00 85 1015.0
20260901123503 77 242 0.0 1.0 0.00 0.23 0.00 85 1015.1
20260901123004 76 242 0.0 1.0 0.00 0.23 0.00 85 1015.0
20260901122503 76 242 0.0 0.0 0.00 0.23 0.00 85 1015.1
20260901122004 76 242 0.0 0.0 0.00 0.23 0.00 85 1014.9
20260901121503 76 242 0.0 0.0 0.00 0.23 0.00 85 1014.9
20260901121003 76 242 0.0 0.0 0.00 0.23 0.00 85 1014.8
20260901120502 76 242 0.0 0.0 0.00 0.23 0.00 85 1014.7
20260901120007 76 242 0.0 0.0 0.00 0.23 0.00 85 1014.7
20260901115503 76 242 0.0 0.0 0.00 0.23 0.00 85 1014.6
20260901115004 76 242 0.0 0.0 0.00 0.23 0.00 85 1014.5
20260901114503 76 242 0.0 0.0 0.00 0.23 0.00 85 1014.4
20260901114004 76 242 0.0 0.0 0.00 0.23 0.00 85 1014.4
20260901113503 76 242 0.0 0.0 0.00 0.23 0.00 85 1014.4
20260901113003 76 242 0.0 0.0 0.00 0.23 0.00 85 1014.4
20260901112503 76 242 0.0 1.0 0.00 0.23 0.00 85 1014.3
20260901111502 76 247 0.0 0.0 0.00 0.23 0.00 85 1014.2
20260901111004 76 247 0.0 0.0 0.00 0.23 0.00 85 1014.1
20260901110503 76 244 0.0 1.0 0.00 0.23 0.00 84 1014.1
20260901110007 76 244 0.0 1.0 0.00 0.23 0.00 84 1014.0
20260901105004 76 246 0.0 1.0 0.00 0.23 0.00 84 1014.0
20260901104503 76 246 0.0 1.0 0.00 0.23 0.00 84 1014.1
20260901104004 77 246 0.0 2.0 0.00 0.23 0.00 84 1014.1
20260901103503 77 246 0.0 2.0 0.00 0.23 0.00 83 1014.1
20260901103007 77 246 0.0 0.0 0.00 0.23 0.00 83 1014.0
20260901102504 77 246 0.0 1.0 0.00 0.23 0.00 83 1013.9
20260901102004 77 246 0.0 1.0 0.00 0.23 0.00 83 1014.0
20260901101503 77 246 0.0 1.0 0.00 0.23 0.00 83 1014.0
20260901101004 77 245 0.0 0.0 0.00 0.23 0.00 83 1014.0
20260901100503 77 262 0.0 0.0 0.00 0.23 0.00 83 1014.0
20260901095003 77 240 0.0 1.0 0.00 0.23 0.00 82 1013.9
20260901094503 77 240 0.0 1.0 0.00 0.23 0.00 82 1013.9
20260901094003 77 240 0.0 1.0 0.00 0.23 0.00 82 1013.8
20260901093503 77 240 0.0 1.0 0.00 0.23 0.00 82 1013.9
20260901093003 77 240 0.0 1.0 0.00 0.23 0.00 82 1013.8
20260901092004 77 244 0.0 2.0 0.00 0.23 0.00 82 1013.9
20260901091005 77 301 0.0 2.0 0.00 0.23 0.00 82 1013.9
20260901090501 77 236 0.0 1.0 0.00 0.23 0.00 82 1013.7
20260901090004 77 237 0.0 1.0 0.00 0.23 0.00 82 1013.7
20260901085004 77 261 0.0 1.0 0.00 0.23 0.00 82 1013.7
20260901084503 77 261 0.0 1.0 0.00 0.23 0.00 82 1013.7
20260901084004 77 263 0.0 1.0 0.00 0.23 0.00 82 1013.7
20260901083502 77 263 0.0 1.0 0.00 0.23 0.00 82 1013.8
20260901083004 77 270 0.0 4.0 0.00 0.23 0.00 82 1013.7
20260901082504 77 280 0.0 4.0 0.00 0.23 0.00 82 1013.6
20260901082004 77 254 0.0 2.0 0.00 0.23 0.00 81 1013.7
20260901081503 78 254 0.0 2.0 0.00 0.23 0.00 82 1013.8
20260901081003 78 284 0.0 2.0 0.00 0.23 0.00 81 1013.7
20260901080004 78 289 0.0 2.0 0.00 0.23 0.00 81 1013.7
20260901075503 78 302 0.0 2.0 0.00 0.23 0.00 81 1013.6
20260901075004 78 249 0.0 0.0 0.00 0.23 0.00 81 1013.7
20260901074503 78 258 0.0 1.0 0.00 0.23 0.00 81 1013.6
20260901074004 78 258 0.0 1.0 0.00 0.23 0.00 81 1013.7
20260901073503 78 240 0.0 1.0 0.00 0.23 0.00 81 1013.7
20260901073004 78 240 0.0 3.0 0.00 0.23 0.00 81 1013.7
20260901072502 78 240 0.0 3.0 0.00 0.23 0.00 81 1013.6
20260901072003 78 274 0.0 2.0 0.00 0.23 0.00 81 1013.6
20260901071506 78 275 0.0 2.0 0.00 0.23 0.00 81 1013.7
20260901070003 78 259 0.0 1.0 0.00 0.23 0.00 81 1013.5
20260901065004 78 257 0.0 3.0 0.00 0.23 0.00 81 1013.6
20260901064501 78 248 0.0 3.0 0.00 0.23 0.00 81 1013.5
20260901063503 78 313 0.0 2.0 0.00 0.23 0.00 81 1013.6
20260901063004 78 313 0.0 2.0 0.00 0.23 0.00 81 1013.5
20260901062003 78 244 0.0 1.0 0.00 0.23 0.00 82 1013.5
20260901061500 78 244 0.0 0.0 0.00 0.23 0.00 82 1013.4
20260901060008 78 196 0.0 0.0 0.00 0.23 0.00 81 1013.4
20260901055503 78 196 0.0 0.0 0.00 0.23 0.00 81 1013.5
20260901055004 78 196 0.0 0.0 0.00 0.23 0.00 81 1013.6
20260901054504 78 196 0.0 0.0 0.00 0.23 0.00 81 1013.6
20260901054005 79 169 0.0 0.0 0.00 0.23 0.00 81 1013.6
20260901053503 79 169 0.0 1.0 0.00 0.23 0.00 81 1013.6